Home > Weather > Escondido > Past weeks

Flag for USA Past Weather in Escondido, California, USA — Yesterday and Last 2 Weeks

Now
58 °F

Dense fog.


Feels Like: 58 °F
Forecast: 60 / 84 °F
Wind: No wind

Location: Ramona Airport

Current Time: Aug 25, 2016 at 4:48:34 AM

Latest Report: Aug 25, 2016 at 3:53 AM


Visibility: 0 mi

Pressure: 29.92 "Hg

Humidity: 97%

Dew Point: 57 °F

Location of EscondidoLocation

Past Weather in Escondido — Graph

°F

Escondido Temperature Yesterday

Maximum temperature yesterday: 91 °F (at 1:53 PM)
Minimum temperature yesterday: 57 °F (at 3:53 AM)
Average temperature yesterday: 72 °F

High & Low Weather Summary for the Past Weeks

 TemperatureHumidityPressure
High103 °F (Aug 16, 1:53 PM)97% (Aug 19, 3:59 AM)30.03 "Hg (Aug 19, 3:59 AM)
Low50 °F (Aug 10, 3:53 AM)5% (Aug 16, 2:53 PM)29.79 "Hg (Aug 17, 5:53 PM)
Average74 °F55%29.89 "Hg
* Reported Aug 10 3:53 AM — Aug 25 3:53 AM, Escondido, Weather by CustomWeather, © 2016

Note: Actual official high and low records may vary slightly from our data, if they occured in-between our weather recording intervals... More about our weather records

Advertising

Escondido Weather History for the Previous 24 Hours

Scroll right to see more
 ConditionsComfort  
Time TempWeatherWind HumidityBarometerVisibility
3:53 AM
Thu, Aug 25
58 °FDense fog.No wind97%29.92 "Hg0 mi
2:59 AM58 °FDense fog.No wind87%29.97 "Hg1 mi
1:53 AM59 °FClear.No wind78%29.92 "Hg10 mi
12:53 AM61 °FClear.No wind75%29.93 "Hg10 mi
11:53 PM
Wed, Aug 24
63 °FClear.No wind73%29.94 "Hg10 mi
10:53 PM63 °FClear.No wind68%29.95 "Hg10 mi
9:53 PM66 °FClear.No wind65%29.96 "Hg10 mi
8:53 PM68 °FClear.3 mph63%29.95 "Hg10 mi
7:53 PM70 °FSunny.3 mph59%29.94 "Hg10 mi
6:53 PM76 °FSunny.9 mph54%29.93 "Hg10 mi
5:53 PM82 °FSunny.8 mph40%29.91 "Hg10 mi
4:53 PM87 °FSunny.9 mph32%29.92 "Hg10 mi
3:53 PM89 °FSunny.10 mph29%29.93 "Hg10 mi
2:53 PM90 °FSunny.10 mph31%29.94 "Hg10 mi
1:53 PM91 °FSunny.6 mph28%29.96 "Hg10 mi
12:53 PM90 °FSunny.10 mph24%29.97 "Hg10 mi
11:53 AM86 °FSunny.7 mph32%29.99 "Hg10 mi
10:53 AM83 °FSunny.10 mph31%30.01 "Hg10 mi
9:53 AM78 °FSunny.7 mph43%30.01 "Hg10 mi
8:53 AM72 °FSunny.3 mph53%30.01 "Hg10 mi
7:53 AM64 °FSunny.No wind73%30.02 "Hg10 mi
6:53 AM57 °FClear.No wind78%30.02 "Hg10 mi
5:53 AM57 °FClear.No wind78%30.00 "Hg10 mi
4:53 AM57 °FClear.No wind78%29.99 "Hg10 mi
Weather by CustomWeather, © 2016

See weather overviewHow to use our weather pages